Time,TemperatureF,DewpointF,PressureIn,WindDirection,WindDirectionDegrees,WindSpeedMPH,WindSpeedGustMPH,Humidity,HourlyPrecipIn,Conditions,Clouds,dailyrainin,SoftwareType,DateUTC
2013-09-22 00:00:00,81.2,73.3,29.84,SSE,167,2.0,2.0,77,0.00,,,0.00,Wunderground v.1.15,2013-09-22 04:00:00,
2013-09-22 00:10:00,81.2,72.9,29.84,SSE,166,3.0,3.0,76,0.00,,,0.00,Wunderground v.1.15,2013-09-22 04:10:00,
2013-09-22 00:20:00,81.2,72.9,29.83,ESE,122,3.0,3.0,76,0.00,,,0.00,Wunderground v.1.15,2013-09-22 04:20:00,
2013-09-22 00:30:00,81.2,72.9,29.83,SSE,155,2.0,3.0,76,0.00,,,0.00,Wunderground v.1.15,2013-09-22 04:30:00,
2013-09-22 00:40:00,81.1,72.8,29.83,SE,134,3.0,3.0,76,0.00,,,0.00,Wunderground v.1.15,2013-09-22 04:40:00,
2013-09-22 00:50:00,81.2,72.9,29.83,South,174,2.0,4.0,76,0.00,,,0.00,Wunderground v.1.15,2013-09-22 04:50:00,
2013-09-22 01:00:00,81.3,73.0,29.83,SSE,166,2.0,4.0,76,0.00,,,0.00,Wunderground v.1.15,2013-09-22 05:00:00,
2013-09-22 01:10:00,80.8,72.9,29.83,WSW,253,2.0,2.0,77,0.00,,,0.00,Wunderground v.1.15,2013-09-22 05:10:00,
2013-09-22 01:20:00,79.9,72.8,29.83,WNW,284,1.0,1.0,79,0.00,,,0.00,Wunderground v.1.15,2013-09-22 05:20:00,
2013-09-22 01:30:00,78.8,72.8,29.84,SW,224,3.0,6.0,82,1.18,,,0.10,Wunderground v.1.15,2013-09-22 05:30:00,
2013-09-22 01:40:00,78.0,73.5,29.83,SE,146,2.0,2.0,86,0.09,,,0.17,Wunderground v.1.15,2013-09-22 05:40:00,
2013-09-22 01:50:00,77.9,74.1,29.82,SE,127,1.0,2.0,88,0.05,,,0.18,Wunderground v.1.15,2013-09-22 05:50:00,
2013-09-22 02:00:00,77.9,74.1,29.82,ESE,107,1.0,2.0,88,0.05,,,0.18,Wunderground v.1.15,2013-09-22 06:00:00,
2013-09-22 02:10:00,77.8,74.0,29.82,SE,124,3.0,4.0,88,0.00,,,0.18,Wunderground v.1.15,2013-09-22 06:10:00,
2013-09-22 02:20:00,77.8,74.3,29.81,South,172,2.0,2.0,89,0.00,,,0.18,Wunderground v.1.15,2013-09-22 06:20:00,
2013-09-22 02:30:00,77.8,74.3,29.81,SSE,158,2.0,2.0,89,0.00,,,0.18,Wunderground v.1.15,2013-09-22 06:30:00,
2013-09-22 02:40:00,77.9,74.1,29.81,South,172,2.0,3.0,88,0.00,,,0.18,Wunderground v.1.15,2013-09-22 06:40:00,
2013-09-22 02:50:00,77.9,74.1,29.80,SW,226,1.0,1.0,88,0.00,,,0.18,Wunderground v.1.15,2013-09-22 06:50:00,
2013-09-22 03:00:00,77.8,74.3,29.80,SW,225,0.0,0.0,89,0.00,,,0.18,Wunderground v.1.15,2013-09-22 07:00:00,
2013-09-22 03:10:00,77.7,74.2,29.80,SE,136,0.0,0.0,89,0.00,,,0.18,Wunderground v.1.15,2013-09-22 07:10:00,
2013-09-22 03:20:00,77.7,74.2,29.80,South,174,1.0,1.0,89,0.00,,,0.18,Wunderground v.1.15,2013-09-22 07:20:00,
2013-09-22 03:30:00,77.7,74.2,29.80,SSW,205,1.0,1.0,89,0.00,,,0.18,Wunderground v.1.15,2013-09-22 07:30:00,
2013-09-22 03:40:00,77.7,74.5,29.80,South,186,0.0,0.0,90,0.00,,,0.18,Wunderground v.1.15,2013-09-22 07:40:00,
2013-09-22 03:50:00,77.7,74.5,29.80,SSW,200,0.0,0.0,90,0.00,,,0.18,Wunderground v.1.15,2013-09-22 07:50:00,
2013-09-22 04:00:00,77.7,74.5,29.79,SW,230,0.0,0.0,90,0.00,,,0.18,Wunderground v.1.15,2013-09-22 08:00:00,
2013-09-22 04:10:00,77.6,74.4,29.79,SW,235,0.0,0.0,90,0.00,,,0.18,Wunderground v.1.15,2013-09-22 08:10:00,
2013-09-22 04:20:00,77.8,74.6,29.80,WSW,249,0.0,0.0,90,0.00,,,0.18,Wunderground v.1.15,2013-09-22 08:20:00,
2013-09-22 04:30:00,77.7,74.5,29.80,WSW,250,0.0,0.0,90,0.00,,,0.18,Wunderground v.1.15,2013-09-22 08:30:00,
2013-09-22 04:40:00,77.6,74.8,29.80,WSW,250,0.0,0.0,91,0.00,,,0.18,Wunderground v.1.15,2013-09-22 08:40:00,
2013-09-22 04:50:00,77.5,74.7,29.80,WSW,252,0.0,0.0,91,0.00,,,0.18,Wunderground v.1.15,2013-09-22 08:50:00,
2013-09-22 05:00:00,77.4,74.6,29.80,WSW,252,0.0,0.0,91,0.00,,,0.18,Wunderground v.1.15,2013-09-22 09:00:00,
2013-09-22 05:10:00,77.4,74.6,29.79,WSW,245,0.0,0.0,91,0.00,,,0.18,Wunderground v.1.15,2013-09-22 09:10:00,
2013-09-22 05:20:00,77.4,74.6,29.80,WSW,245,0.0,0.0,91,0.00,,,0.18,Wunderground v.1.15,2013-09-22 09:20:00,
2013-09-22 05:30:00,77.3,74.8,29.80,WSW,246,0.0,0.0,92,0.00,,,0.18,Wunderground v.1.15,2013-09-22 09:30:00,
2013-09-22 05:40:00,77.3,74.8,29.80,WSW,246,0.0,0.0,92,0.00,,,0.18,Wunderground v.1.15,2013-09-22 09:40:00,
2013-09-22 05:50:00,77.2,74.7,29.80,WSW,248,0.0,0.0,92,0.00,,,0.18,Wunderground v.1.15,2013-09-22 09:50:00,
2013-09-22 06:00:00,77.1,74.6,29.81,SSW,208,0.0,0.0,92,0.00,,,0.18,Wunderground v.1.15,2013-09-22 10:00:00,
2013-09-22 06:10:00,77.1,74.6,29.81,South,174,0.0,0.0,92,0.00,,,0.18,Wunderground v.1.15,2013-09-22 10:10:00,
2013-09-22 06:20:00,77.2,74.7,29.81,SSW,205,0.0,4.0,92,0.00,,,0.18,Wunderground v.1.15,2013-09-22 10:20:00,
2013-09-22 06:30:00,77.1,74.6,29.81,SW,233,1.0,2.0,92,0.00,,,0.18,Wunderground v.1.15,2013-09-22 10:30:00,
2013-09-22 06:40:00,77.1,74.6,29.82,WSW,239,1.0,1.0,92,0.00,,,0.18,Wunderground v.1.15,2013-09-22 10:40:00,
2013-09-22 06:50:00,77.1,74.6,29.81,WSW,252,0.0,1.0,92,0.00,,,0.18,Wunderground v.1.15,2013-09-22 10:50:00,
2013-09-22 07:00:00,76.9,74.4,29.82,West,281,1.0,2.0,92,0.00,,,0.18,Wunderground v.1.15,2013-09-22 11:00:00,
2013-09-22 07:10:00,76.9,74.4,29.82,West,277,1.0,1.0,92,0.00,,,0.18,Wunderground v.1.15,2013-09-22 11:10:00,
2013-09-22 07:20:00,76.8,74.3,29.82,SE,135,0.0,0.0,92,0.00,,,0.18,Wunderground v.1.15,2013-09-22 11:20:00,
2013-09-22 07:30:00,76.8,74.3,29.83,South,171,1.0,1.0,92,0.00,,,0.18,Wunderground v.1.15,2013-09-22 11:30:00,
2013-09-22 07:40:00,76.9,74.4,29.82,South,187,1.0,2.0,92,0.00,,,0.18,Wunderground v.1.15,2013-09-22 11:40:00,
2013-09-22 07:50:00,77.2,74.7,29.83,SSE,150,1.0,1.0,92,0.00,,,0.18,Wunderground v.1.15,2013-09-22 11:50:00,
2013-09-22 08:00:00,77.7,75.2,29.83,SW,231,2.0,2.0,92,0.00,,,0.18,Wunderground v.1.15,2013-09-22 12:00:00,
2013-09-22 08:10:00,78.0,75.2,29.83,SSE,152,0.0,1.0,91,0.00,,,0.18,Wunderground v.1.15,2013-09-22 12:10:00,
2013-09-22 08:20:00,78.1,74.9,29.83,SW,235,1.0,1.0,90,0.00,,,0.18,Wunderground v.1.15,2013-09-22 12:20:00,
2013-09-22 08:30:00,78.3,75.1,29.83,South,183,1.0,2.0,90,0.00,,,0.18,Wunderground v.1.15,2013-09-22 12:30:00,
2013-09-22 08:40:00,78.9,75.7,29.84,SW,229,1.0,1.0,90,0.00,,,0.18,Wunderground v.1.15,2013-09-22 12:40:00,
2013-09-22 08:50:00,79.7,75.8,29.84,SW,219,0.0,0.0,88,0.00,,,0.18,Wunderground v.1.15,2013-09-22 12:50:00,
2013-09-22 09:00:00,80.1,75.5,29.84,SW,228,1.0,3.0,86,0.00,,,0.18,Wunderground v.1.15,2013-09-22 13:00:00,
2013-09-22 09:10:00,80.8,75.9,29.84,SW,236,1.0,1.0,85,0.00,,,0.18,Wunderground v.1.15,2013-09-22 13:10:00,
2013-09-22 09:20:00,81.5,75.8,29.85,SSW,208,2.0,4.0,83,0.00,,,0.18,Wunderground v.1.15,2013-09-22 13:20:00,
2013-09-22 09:30:00,81.7,75.7,29.85,SW,222,3.0,6.0,82,0.00,,,0.18,Wunderground v.1.15,2013-09-22 13:30:00,
2013-09-22 09:40:00,82.2,75.8,29.85,SSE,160,3.0,3.0,81,0.00,,,0.18,Wunderground v.1.15,2013-09-22 13:40:00,
2013-09-22 09:50:00,82.8,76.4,29.85,SE,146,3.0,3.0,81,0.00,,,0.18,Wunderground v.1.15,2013-09-22 13:50:00,
2013-09-22 10:00:00,83.3,76.1,29.85,South,179,3.0,7.0,79,0.00,,,0.18,Wunderground v.1.15,2013-09-22 14:00:00,
2013-09-22 10:10:00,83.1,75.5,29.85,SSW,197,4.0,4.0,78,0.00,,,0.18,Wunderground v.1.15,2013-09-22 14:10:00,
2013-09-22 10:20:00,84.0,76.0,29.85,SW,214,3.0,7.0,77,0.00,,,0.18,Wunderground v.1.15,2013-09-22 14:20:00,
2013-09-22 10:30:00,84.0,75.2,29.85,SW,228,4.0,4.0,75,0.00,,,0.18,Wunderground v.1.15,2013-09-22 14:30:00,
2013-09-22 10:40:00,84.9,76.1,29.85,South,173,4.0,4.0,75,0.00,,,0.18,Wunderground v.1.15,2013-09-22 14:40:00,
2013-09-22 10:50:00,86.0,75.5,29.85,SE,140,5.0,5.0,71,0.00,,,0.18,Wunderground v.1.15,2013-09-22 14:50:00,
2013-09-22 11:00:00,86.1,74.7,29.85,SSW,204,6.0,6.0,69,0.00,,,0.18,Wunderground v.1.15,2013-09-22 15:00:00,
2013-09-22 11:10:00,85.7,75.6,29.85,East,85,7.0,9.0,72,0.00,,,0.18,Wunderground v.1.15,2013-09-22 15:10:00,
2013-09-22 11:20:00,86.3,75.8,29.85,SSE,165,6.0,6.0,71,0.00,,,0.18,Wunderground v.1.15,2013-09-22 15:20:00,
2013-09-22 11:30:00,86.5,74.7,29.85,SW,231,8.0,8.0,68,0.00,,,0.18,Wunderground v.1.15,2013-09-22 15:30:00,
2013-09-22 11:40:00,85.7,75.2,29.85,SSW,205,8.0,8.0,71,0.00,,,0.18,Wunderground v.1.15,2013-09-22 15:40:00,
2013-09-22 11:50:00,86.2,74.4,29.85,SSE,166,8.0,8.0,68,0.00,,,0.18,Wunderground v.1.15,2013-09-22 15:50:00,
2013-09-22 12:00:00,87.2,75.3,29.84,SSW,212,7.0,8.0,68,0.00,,,0.18,Wunderground v.1.15,2013-09-22 16:00:00,
2013-09-22 12:10:00,87.1,74.8,29.84,ESE,105,7.0,8.0,67,0.00,,,0.18,Wunderground v.1.15,2013-09-22 16:10:00,
2013-09-22 12:20:00,86.9,74.6,29.84,South,186,8.0,8.0,67,0.00,,,0.18,Wunderground v.1.15,2013-09-22 16:20:00,
2013-09-22 12:30:00,87.6,74.8,29.84,SE,143,6.0,6.0,66,0.00,,,0.18,Wunderground v.1.15,2013-09-22 16:30:00,
2013-09-22 12:40:00,87.2,74.9,29.84,SSW,195,8.0,8.0,67,0.00,,,0.18,Wunderground v.1.15,2013-09-22 16:40:00,
2013-09-22 12:50:00,87.5,75.6,29.83,SSE,158,6.0,8.0,68,0.00,,,0.18,Wunderground v.1.15,2013-09-22 16:50:00,
2013-09-22 13:00:00,88.0,75.2,29.83,SSE,156,6.0,6.0,66,0.00,,,0.18,Wunderground v.1.15,2013-09-22 17:00:00,
2013-09-22 13:10:00,87.8,74.6,29.83,SSE,154,7.0,7.0,65,0.00,,,0.18,Wunderground v.1.15,2013-09-22 17:10:00,
2013-09-22 13:20:00,87.5,74.7,29.83,ESE,117,7.0,7.0,66,0.00,,,0.18,Wunderground v.1.15,2013-09-22 17:20:00,
2013-09-22 13:30:00,88.2,75.4,29.82,SSE,152,6.0,9.0,66,0.00,,,0.18,Wunderground v.1.15,2013-09-22 17:30:00,
2013-09-22 13:50:00,88.0,74.8,29.82,ESE,121,6.0,6.0,65,0.00,,,0.18,Wunderground v.1.15,2013-09-22 17:50:00,
2013-09-22 14:00:00,87.6,75.3,29.81,South,169,5.0,5.0,67,0.00,,,0.18,Wunderground v.1.15,2013-09-22 18:00:00,
2013-09-22 14:10:00,86.9,74.6,29.82,SSE,155,6.0,6.0,67,0.00,,,0.18,Wunderground v.1.15,2013-09-22 18:10:00,
2013-09-22 14:20:00,86.1,74.7,29.81,SE,146,6.0,8.0,69,0.00,,,0.18,Wunderground v.1.15,2013-09-22 18:20:00,
2013-09-22 14:30:00,86.0,75.1,29.81,South,174,5.0,16.0,70,0.00,,,0.18,Wunderground v.1.15,2013-09-22 18:30:00,
2013-09-22 14:40:00,85.7,75.2,29.81,SE,139,6.0,6.0,71,0.00,,,0.18,Wunderground v.1.15,2013-09-22 18:40:00,
2013-09-22 14:50:00,85.8,74.9,29.81,WNW,285,5.0,5.0,70,0.00,,,0.18,Wunderground v.1.15,2013-09-22 18:50:00,
2013-09-22 15:00:00,86.2,74.4,29.80,WNW,282,4.0,5.0,68,0.00,,,0.18,Wunderground v.1.15,2013-09-22 19:00:00,
2013-09-22 15:10:00,86.5,74.7,29.80,SSE,165,5.0,5.0,68,0.00,,,0.18,Wunderground v.1.15,2013-09-22 19:10:00,
2013-09-22 15:20:00,86.6,74.8,29.80,South,184,4.0,6.0,68,0.00,,,0.18,Wunderground v.1.15,2013-09-22 19:20:00,
2013-09-22 15:30:00,86.2,74.4,29.79,South,172,6.0,6.0,68,0.00,,,0.18,Wunderground v.1.15,2013-09-22 19:30:00,
2013-09-22 15:40:00,87.2,74.9,29.79,SSE,155,6.0,6.0,67,0.00,,,0.18,Wunderground v.1.15,2013-09-22 19:40:00,
2013-09-22 15:50:00,87.5,75.2,29.78,SE,141,5.0,10.0,67,0.00,,,0.18,Wunderground v.1.15,2013-09-22 19:50:00,
2013-09-22 16:00:00,87.8,75.0,29.78,SSW,203,6.0,6.0,66,0.00,,,0.18,Wunderground v.1.15,2013-09-22 20:00:00,
2013-09-22 16:10:00,87.5,75.6,29.78,SSW,194,5.0,5.0,68,0.00,,,0.18,Wunderground v.1.15,2013-09-22 20:10:00,
2013-09-22 16:20:00,87.9,76.5,29.78,South,172,7.0,7.0,69,0.00,,,0.18,Wunderground v.1.15,2013-09-22 20:20:00,
2013-09-22 16:30:00,87.9,76.0,29.78,SSE,162,6.0,8.0,68,0.00,,,0.18,Wunderground v.1.15,2013-09-22 20:30:00,
2013-09-22 16:40:00,86.7,76.2,29.78,SSE,162,7.0,7.0,71,0.00,,,0.18,Wunderground v.1.15,2013-09-22 20:40:00,
2013-09-22 16:50:00,86.7,77.0,29.77,ESE,112,7.0,7.0,73,0.00,,,0.18,Wunderground v.1.15,2013-09-22 20:50:00,
2013-09-22 17:00:00,87.3,76.3,29.77,SSE,165,6.0,6.0,70,0.00,,,0.18,Wunderground v.1.15,2013-09-22 21:00:00,
2013-09-22 17:10:00,87.6,76.2,29.77,ESE,107,3.0,3.0,69,0.00,,,0.18,Wunderground v.1.15,2013-09-22 21:10:00,
2013-09-22 17:20:00,89.4,76.1,29.77,West,274,2.0,2.0,65,0.00,,,0.18,Wunderground v.1.15,2013-09-22 21:20:00,
2013-09-22 17:30:00,90.0,74.7,29.78,West,266,2.0,5.0,61,0.00,,,0.18,Wunderground v.1.15,2013-09-22 21:30:00,
2013-09-22 17:40:00,90.7,74.9,29.78,SW,224,3.0,3.0,60,0.00,,,0.18,Wunderground v.1.15,2013-09-22 21:40:00,
2013-09-22 17:50:00,90.2,74.9,29.78,SSE,162,4.0,4.0,61,0.00,,,0.18,Wunderground v.1.15,2013-09-22 21:50:00,
2013-09-22 18:00:00,90.3,74.5,29.79,SE,143,3.0,3.0,60,0.00,,,0.18,Wunderground v.1.15,2013-09-22 22:00:00,
2013-09-22 18:10:00,89.8,74.1,29.79,SW,228,3.0,3.0,60,0.00,,,0.18,Wunderground v.1.15,2013-09-22 22:10:00,
2013-09-22 18:30:00,88.2,74.9,29.79,South,181,4.0,4.0,65,0.00,,,0.18,Wunderground v.1.15,2013-09-22 22:30:00,
2013-09-22 18:40:00,88.0,75.2,29.80,SE,134,3.0,4.0,66,0.00,,,0.18,Wunderground v.1.15,2013-09-22 22:40:00,
2013-09-22 18:50:00,87.0,74.3,29.80,SSW,208,4.0,4.0,66,0.00,,,0.18,Wunderground v.1.15,2013-09-22 22:50:00,
2013-09-22 19:00:00,86.2,74.4,29.80,SSE,158,3.0,4.0,68,0.00,,,0.18,Wunderground v.1.15,2013-09-22 23:00:00,
2013-09-22 19:10:00,85.6,75.1,29.81,South,176,3.0,3.0,71,0.00,,,0.18,Wunderground v.1.15,2013-09-22 23:10:00,
2013-09-22 19:20:00,85.1,75.5,29.81,SSE,165,3.0,5.0,73,0.00,,,0.18,Wunderground v.1.15,2013-09-22 23:20:00,
2013-09-22 19:30:00,84.6,75.4,29.82,SSE,167,3.0,4.0,74,0.00,,,0.18,Wunderground v.1.15,2013-09-22 23:30:00,
2013-09-22 19:40:00,84.4,75.6,29.82,SSE,160,2.0,2.0,75,0.00,,,0.18,Wunderground v.1.15,2013-09-22 23:40:00,
2013-09-22 19:50:00,84.1,75.7,29.83,South,170,3.0,4.0,76,0.00,,,0.18,Wunderground v.1.15,2013-09-22 23:50:00,
2013-09-22 20:00:00,83.8,75.8,29.83,SSE,167,3.0,4.0,77,0.00,,,0.18,Wunderground v.1.15,2013-09-23 00:00:00,
2013-09-22 20:10:00,83.6,76.0,29.83,SSW,194,3.0,3.0,78,0.00,,,0.18,Wunderground v.1.15,2013-09-23 00:10:00,
2013-09-22 20:20:00,83.4,76.2,29.83,SSE,159,2.0,2.0,79,0.00,,,0.18,Wunderground v.1.15,2013-09-23 00:20:00,
2013-09-22 20:30:00,83.3,76.5,29.83,SSE,162,2.0,2.0,80,0.00,,,0.18,Wunderground v.1.15,2013-09-23 00:30:00,
2013-09-22 20:40:00,83.2,76.4,29.83,SE,134,2.0,2.0,80,0.00,,,0.18,Wunderground v.1.15,2013-09-23 00:40:00,
2013-09-22 20:50:00,83.2,76.4,29.84,SW,222,3.0,3.0,80,0.00,,,0.18,Wunderground v.1.15,2013-09-23 00:50:00,
2013-09-22 21:00:00,83.1,76.7,29.84,SSE,165,3.0,3.0,81,0.00,,,0.18,Wunderground v.1.15,2013-09-23 01:00:00,
2013-09-22 21:10:00,83.1,76.7,29.85,South,174,2.0,3.0,81,0.00,,,0.18,Wunderground v.1.15,2013-09-23 01:10:00,
2013-09-22 21:20:00,83.0,76.6,29.85,South,173,2.0,2.0,81,0.00,,,0.18,Wunderground v.1.15,2013-09-23 01:20:00,
2013-09-22 21:30:00,82.9,76.8,29.85,SSE,159,1.0,1.0,82,0.00,,,0.18,Wunderground v.1.15,2013-09-23 01:30:00,
2013-09-22 21:40:00,82.7,76.6,29.86,SW,233,1.0,1.0,82,0.00,,,0.18,Wunderground v.1.15,2013-09-23 01:40:00,
2013-09-22 21:50:00,82.4,76.3,29.86,SSW,211,1.0,2.0,82,0.00,,,0.18,Wunderground v.1.15,2013-09-23 01:50:00,
2013-09-22 22:00:00,82.2,76.2,29.86,SW,225,1.0,1.0,82,0.00,,,0.18,Wunderground v.1.15,2013-09-23 02:00:00,
2013-09-22 22:20:00,82.0,76.3,29.87,SSW,211,1.0,1.0,83,0.00,,,0.18,Wunderground v.1.15,2013-09-23 02:20:00,
2013-09-22 22:30:00,81.8,76.1,29.87,SW,233,0.0,0.0,83,0.00,,,0.18,Wunderground v.1.15,2013-09-23 02:30:00,
2013-09-22 22:40:00,81.8,76.5,29.87,SW,225,0.0,0.0,84,0.00,,,0.18,Wunderground v.1.15,2013-09-23 02:40:00,
2013-09-22 22:50:00,81.7,76.4,29.87,SSW,198,0.0,0.0,84,0.00,,,0.18,Wunderground v.1.15,2013-09-23 02:50:00,
2013-09-22 23:00:00,81.6,76.3,29.87,WSW,238,0.0,0.0,84,0.00,,,0.18,Wunderground v.1.15,2013-09-23 03:00:00,
2013-09-22 23:10:00,81.7,76.4,29.88,WSW,249,0.0,0.0,84,0.00,,,0.18,Wunderground v.1.15,2013-09-23 03:10:00,
2013-09-22 23:20:00,81.8,76.1,29.88,WSW,256,1.0,1.0,83,0.00,,,0.18,Wunderground v.1.15,2013-09-23 03:20:00,
2013-09-22 23:30:00,81.7,76.4,29.88,WSW,243,1.0,1.0,84,0.00,,,0.18,Wunderground v.1.15,2013-09-23 03:30:00,
2013-09-22 23:40:00,81.7,76.4,29.88,WSW,252,0.0,0.0,84,0.00,,,0.18,Wunderground v.1.15,2013-09-23 03:40:00,
2013-09-22 23:50:00,81.5,76.2,29.88,WSW,250,0.0,0.0,84,0.00,,,0.18,Wunderground v.1.15,2013-09-23 03:50:00,